Location: Camps Bay
(33.9517°S, 18.3844°E)
Time: 21:37:30
(UTC+00:00)

Cosmos 773 Rocket - Pass Details

Date: 18 January 2020
Orbit: 746 x 776 km, 74.1° (Epoch: 28 February)

Event Time Altitude Azimuth Distance (km) Brightness Sun altitude
Rises 02:23:54 0° 197° (SSW) 3,253 7.6 -16.4°
Reaches altitude 10° 02:26:17 10° 197° (SSW) 2,325 6.8 -16.0°
Maximum altitude 02:31:35 90° 118° (ESE) 780 4.0 -15.2°
Drops below altitude 10° 02:36:51 10° 16° (NNE) 2,313 6.3 -14.3°
Sets 02:39:13 0° 15° (NNE) 3,235 7.0 -13.9°
